This is the latest recevied weather packets stored in our database for station/object AJ5AG. If no packets are shown the sender has not sent any weather packets the latest 10 day(s).
| Time | Temp. | Humidity | Pressure | Rain* | Wind** | Luminosity | Snow |
|---|---|---|---|---|---|---|---|
| 1778093894 | 28.33° C | 75% | 1012.3 hPa | 0 mm | - | 211 W/m² | - |
| 1778093591 | 28.33° C | 76% | 1012.3 hPa | 0 mm | - | 350 W/m² | - |
| 1778093288 | 28.89° C | 76% | 1012.2 hPa | 0 mm | - | 408 W/m² | - |
| 1778092985 | 28.89° C | 76% | 1012.3 hPa | 0 mm | - | 711 W/m² | - |
| 1778092682 | 28.33° C | 77% | 1012.2 hPa | 0 mm | - | 666 W/m² | - |
| 1778092377 | 27.78° C | 79% | 1012.5 hPa | 0 mm | - | 709 W/m² | - |
| 1778092075 | 27.22° C | 82% | 1012.6 hPa | 0 mm | - | 600 W/m² | - |
| 1778091772 | 26.67° C | 83% | 1012.7 hPa | 0 mm | - | 178 W/m² | - |
| 1778091469 | 26.67° C | 83% | 1013 hPa | 0 mm | - | 178 W/m² | - |
| 1778091167 | 26.67° C | 83% | 1012.8 hPa | 0 mm | - | 139 W/m² | - |
| 1778090864 | 26.67° C | 84% | 1013.1 hPa | 0 mm | - | 131 W/m² | - |
| 1778090559 | 26.67° C | 84% | 1013.3 hPa | 0 mm | - | 161 W/m² | - |
| 1778090256 | 26.67° C | 84% | 1013.4 hPa | 0 mm | - | 208 W/m² | - |
| 1778089953 | 26.67° C | 85% | 1013.4 hPa | 0 mm | - | 238 W/m² | - |
| 1778089651 | 26.67° C | 85% | 1013.7 hPa | 0 mm | - | 163 W/m² | - |
| 1778089347 | 26.67° C | 87% | 1013.8 hPa | 0 mm | - | 196 W/m² | - |
| 1778089045 | 26.11° C | 87% | 1013.9 hPa | 0 mm | - | 151 W/m² | - |
| 1778088742 | 26.11° C | 86% | 1014 hPa | 0 mm | - | 100 W/m² | - |
| 1778088439 | 26.11° C | 86% | 1013.9 hPa | 0 mm | - | 90 W/m² | - |
| 1778088135 | 26.11° C | 85% | 1014.2 hPa | 0 mm | - | 42 W/m² | - |
| 1778087833 | 26.67° C | 85% | 1014.1 hPa | 0 mm | - | 31 W/m² | - |
| 1778087530 | 26.67° C | 85% | 1014.3 hPa | 0 mm | - | 49 W/m² | - |
| 1778087228 | 26.67° C | 84% | 1014.2 hPa | 0 mm | - | 52 W/m² | - |
| 1778086924 | 26.67° C | 83% | 1014.3 hPa | 0 mm | - | 45 W/m² | - |
| 1778086622 | 26.67° C | 82% | 1014.3 hPa | 0 mm | - | 57 W/m² | - |
* Rain latest hour (hover to see other rain measurements)
** Current wind speed in m/s (hover to see current wind gust speed)